#timestamp,LO_Frequency,Hit,StdDev 
1522436415.2,286047000.1,N
1522436435.0,286046998.2,N
1522436435.9,286046998.2,N
1522436455.8,286046998.3,N
1522436475.6,286046998.1,N
1522436495.4,286046999.8,N
1522436515.3,286047001.0,N
1522436535.1,286046999.9,N
1522436555.9,286046998.8,N
1522436575.7,286046999.1,N
1522436595.5,286046998.4,N
1522436615.4,286046999.4,N
1522436635.2,286046998.4,N
1522436655.0,286047000.9,N
1522436655.9,286047000.9,N
1522436675.8,286046998.1,N
1522436695.6,286046999.4,N
1522436715.5,286046996.7,N
1522436735.3,286046999.4,N
1522436755.1,286046996.7,N
1522436775.9,286046999.3,N
1522436795.7,286046998.8,N
1522436815.5,286046998.3,N
1522436835.4,286047000.9,N
1522436855.2,286047000.1,N
1522436875.0,286047000.7,N
1522436876.0,286047000.7,N
1522436895.8,286047000.7,N
1522436915.6,286047002.7,N
1522436935.5,286046999.8,N
1522436955.3,286047000.2,N
1522436975.1,286047011.9,Y
1522436995.9,286047001.3,P
1522437015.7,286047002.8,N
1522437035.6,286047002.1,N
1522437055.4,286046999.8,N
1522437075.2,286046999.9,N
1522437095.1,286047000.6,N
1522437096.0,286047000.6,N
1522437115.8,286046999.8,N
1522437135.6,286046999.7,N
1522437155.5,286047003.5,Y
1522437175.3,286047003.4,P
1522437195.2,286047005.3,P
1522437215.9,286047001.6,N
1522437235.7,286047001.7,N
1522437255.6,286047001.5,N
1522437275.4,286047001.9,N
1522437295.2,286047002.2,N
1522437315.1,286046999.7,N
1522437316.0,286046999.7,N
1522437335.8,286047000.1,N
1522437355.7,286047000.2,N
1522437375.5,286047000.1,N
1522437395.3,286046999.9,N
1522437415.2,286047000.6,N
1522437435.0,286047002.5,N
1522437435.9,286047002.5,N
1522437455.7,286047004.3,N
1522437475.6,286047002.6,N
1522437495.4,286047002.0,N
1522437515.3,286047001.6,N
1522437535.1,286046999.8,N
1522437536.0,286046999.8,N
1522437555.8,286047002.4,N
1522437575.7,286047001.0,N
1522437595.5,286047002.8,N
1522437615.3,286046999.7,N
1522437635.2,286047004.1,N
1522437655.0,286047005.8,Y
1522437655.9,286047005.8,P
1522437675.8,286047004.2,N
1522437695.6,286047001.9,N
1522437715.4,286047004.0,N
1522437735.3,286047002.4,N
1522437755.1,286046999.8,N
1522437775.9,286047002.6,N
1522437795.7,286046999.8,N
1522437815.5,286047000.2,N
1522437835.4,286047000.1,N
1522437855.2,286046998.2,N
1522437875.0,286046998.3,N
1522437875.9,286046998.3,N
1522437895.8,286047000.7,N
1522437915.6,286046999.4,N
1522437935.5,286046998.4,N
1522437955.3,286046999.1,N
1522437975.1,286047001.0,N
1522437995.9,286047001.3,N
1522438015.7,286047000.2,N
1522438035.5,286046998.1,N
1522438055.4,286046999.6,N
1522438075.2,286047001.0,N
1522438095.0,286047000.4,N
1522438096.0,286047000.4,N
1522438115.8,286047000.8,N
1522438135.6,286047001.9,N
1522438155.5,286047002.0,N
1522438175.3,286046999.7,N
1522438195.1,286047000.6,N
1522438215.9,286047001.1,N
1522438235.7,286047001.5,N
1522438255.5,286047003.8,N
1522438275.4,286047002.5,N
1522438295.2,286047002.1,N
1522438315.1,286047001.6,N
1522438316.0,286047001.6,N
1522438335.8,286047001.6,N
1522438355.6,286047000.7,N
1522438375.5,286046996.8,N
1522438395.3,286046997.7,N
1522438415.1,286046997.2,N
1522438435.9,286046999.2,N
1522438455.7,286046997.6,N
1522438475.6,286046995.5,N
1522438495.4,286046997.5,N
1522438515.2,286046997.0,N
1522438535.1,286046996.6,N
1522438536.0,286046996.6,N
1522438555.8,286046999.6,N
1522438575.6,286046999.3,N
1522438595.5,286046998.8,N
1522438615.3,286046999.2,N
1522438635.2,286046999.1,N
1522438655.9,286046997.2,N
1522438675.7,286046997.1,N
1522438695.6,286046996.8,N
1522438715.4,286046999.0,N
1522438735.2,286046998.8,N
1522438755.1,286046999.0,N
1522438756.0,286046999.0,N
1522438775.8,286046999.4,N
1522438795.7,286046999.0,N
1522438815.5,286047000.5,N
1522438835.3,286047002.1,N
1522438855.2,286047002.2,N
1522438875.0,286047002.5,N
1522438875.9,286047002.5,N
1522438895.7,286046999.8,N
1522438915.6,286047001.9,N
1522438935.4,286047000.5,N
1522438955.3,286046999.9,N
1522438975.1,286047001.2,N
1522438976.0,286047001.2,N
1522438995.8,286047001.0,N
1522439015.7,286047002.4,N
1522439035.5,286047002.3,N
1522439055.3,286047000.0,N
1522439075.2,286047002.3,N
1522439095.0,286047002.3,N
1522439095.9,286047002.3,N
1522439115.8,286047000.2,N
1522439135.6,286046998.6,N
1522439155.4,286047002.7,N
1522439175.3,286047003.1,N
1522439195.1,286047004.0,N
1522439215.8,286047006.0,Y
1522439235.7,286047001.9,P
1522439255.5,286047004.4,P
1522439275.4,286047002.3,N
1522439295.2,286047001.5,N
1522439315.0,286047001.8,N
1522439315.9,286047001.8,N
1522439335.8,286047007.1,Y
1522439355.6,286047005.7,P
1522439375.4,286047009.2,P
1522439395.3,286047008.4,N
1522439415.1,286047005.2,N
1522439435.9,286047003.3,N
1522439455.7,286047003.6,N
1522439475.5,286047002.6,N
1522439495.4,286047000.2,N
1522439515.2,286046999.9,N
1522439535.1,286046999.2,N
1522439536.0,286046999.2,N
1522439555.8,286046996.9,N
1522439575.6,286046996.5,N
1522439595.5,286047000.5,N
1522439615.3,286047000.0,N
1522439635.1,286047002.4,N
1522439655.9,286047004.2,N
1522439675.7,286047002.0,N
1522439695.6,286046998.1,N
1522439715.4,286047002.3,N
1522439735.2,286047000.3,N
1522439755.1,286047000.3,N
1522439756.0,286047000.3,N
1522439775.8,286047000.5,N
1522439795.6,286047000.8,N
1522439815.5,286047000.2,N
1522439835.3,286046999.8,N
1522439855.2,286046998.6,N
1522439875.9,286046998.0,N
1522439895.7,286046997.7,N
1522439915.6,286046996.9,N
1522439935.4,286047002.4,N
1522439955.2,286046998.1,N
1522439975.1,286047001.1,N
1522439976.0,286047001.1,N
1522439995.8,286046999.6,N
